Overview Statistics Trail Chart Weather Telemetry Raw packets
 

This is the latest recevied weather packets stored in our database for station/object KK7MLS-13. If no packets are shown the sender has not sent any weather packets the latest 10 day(s).

<< 47 48 49 50 51 52 53 >>
Time Temp. Humidity Pressure Rain* Wind** Luminosity Snow
1788360429 16.11° C 74% 1008.1 hPa 0 mm - 23 W/m² -
1788360124 16.11° C 74% 1007.8 hPa 0 mm - 25 W/m² -
1788359819 15.56° C 75% 1008 hPa 0 mm - 27 W/m² -
1788359514 15.56° C 74% 1007.9 hPa 0 mm - 28 W/m² -
1788359210 15.56° C 75% 1008 hPa 0 mm - 24 W/m² -
1788358908 15.56° C 75% 1008.1 hPa 0 mm - 18 W/m² -
1788358605 15.56° C 75% 1008.2 hPa 0 mm - 18 W/m² -
1788358301 15.56° C 75% 1008 hPa 0 mm - 10 W/m² -
1788357996 15.56° C 75% 1008.4 hPa 0 mm - 9 W/m² -
1788357691 15.56° C 75% 1008.2 hPa 0 mm - 10 W/m² -
1788357390 15.56° C 75% 1008.5 hPa 0 mm - 6 W/m² -
1788357086 15.56° C 75% 1008.4 hPa 0 mm - 4 W/m² -
1788356782 15.56° C 75% 1008.4 hPa 0 mm - 3 W/m² -
1788356481 15.56° C 76% 1008.6 hPa 0 mm - 2 W/m² -
1788356182 15.56° C 75% 1008.6 hPa 0 mm - 1 W/m² -
1788355882 15.56° C 76% 1008.7 hPa 0 mm - 1 W/m² -
1788355577 15.56° C 76% 1008.7 hPa 0 mm - 0 W/m² -
1788355272 15.56° C 77% 1008.9 hPa 0 mm - 0 W/m² -
1788354968 15.56° C 77% 1008.9 hPa 0 mm - 0 W/m² -
1788354663 15.56° C 77% 1008.9 hPa 0 mm - 0 W/m² -
1788354359 15.56° C 77% 1008.9 hPa 0 mm - 0 W/m² -
1788354054 15.56° C 77% 1009.3 hPa 0 mm - 0 W/m² -
1788353750 15.56° C 77% 1009.2 hPa 0 mm - 0 W/m² -
1788353445 15.56° C 77% 1009.3 hPa 0 mm - 0 W/m² -
1788353142 15.56° C 77% 1009.3 hPa 0 mm - 0 W/m² -

* Rain latest hour (hover to see other rain measurements)
** Current wind speed in m/s (hover to see current wind gust speed)